This is the latest recevied weather packets stored in our database for station/object W8KJR. If no packets are shown the sender has not sent any weather packets the latest 10 day(s).
| Time | Temp. | Humidity | Pressure | Rain* | Wind** | Luminosity | Snow |
|---|---|---|---|---|---|---|---|
| 1777989231 | 17.22° C | 72% | 1005.3 hPa | 0 mm | - | - | - |
| 1777988326 | 17.22° C | 73% | 1005.1 hPa | 0 mm | - | - | - |
| 1777987422 | 16.67° C | 73% | 1005.2 hPa | 0 mm | - | - | - |
| 1777986520 | 17.22° C | 73% | 1005.2 hPa | 0 mm | - | - | - |
| 1777985618 | 16.67° C | 75% | 1005.2 hPa | 0 mm | - | - | - |
| 1777984713 | 16.11° C | 77% | 1005.3 hPa | 0 mm | - | - | - |
| 1777983809 | 15° C | 80% | 1005.5 hPa | 0 mm | - | - | - |
| 1777982905 | 15° C | 80% | 1005.4 hPa | 0 mm | - | - | - |
| 1777982003 | 15° C | 80% | 1005.2 hPa | 0 mm | - | - | - |
| 1777981099 | 14.44° C | 79% | 1004.9 hPa | 0 mm | - | - | - |
| 1777980195 | 14.44° C | 79% | 1004.3 hPa | 0 mm | - | - | - |
| 1777979293 | 14.44° C | 77% | 1003.8 hPa | 0 mm | - | - | - |
| 1777978389 | 15° C | 77% | 1003.4 hPa | 0 mm | - | - | - |
| 1777977484 | 15° C | 77% | 1003.4 hPa | 0 mm | - | - | - |
| 1777976583 | 15° C | 78% | 1003 hPa | 0 mm | - | - | - |
| 1777975680 | 15° C | 77% | 1002.7 hPa | 0 mm | - | - | - |
| 1777974777 | 15° C | 79% | 1002.9 hPa | 0 mm | - | - | - |
| 1777973876 | 15° C | 80% | 1003 hPa | 0 mm | - | - | - |
| 1777972975 | 14.44° C | 84% | 1003.1 hPa | 0 mm | - | - | - |
| 1777972074 | 14.44° C | 84% | 1003.4 hPa | 0 mm | - | - | - |
| 1777971173 | 14.44° C | 84% | 1003.1 hPa | 0 mm | - | - | - |
| 1777970271 | 15° C | 83% | 1002.9 hPa | 0 mm | - | - | - |
| 1777969367 | 16.11° C | 76% | 1003 hPa | 0 mm | - | - | - |
| 1777968463 | 16.67° C | 71% | 1002.9 hPa | 0 mm | - | - | - |
| 1777967563 | 17.22° C | 69% | 1002.9 hPa | 0 mm | - | - | - |
* Rain latest hour (hover to see other rain measurements)
** Current wind speed in m/s (hover to see current wind gust speed)